FW7828 Weather Reports


time (UTC)temp
F
wind
direction
speed
knots
gust
knots
rain 1hr
in
rain 24hr
in
rain mn
in
humidity
%
barometer
mb
20260901232925 86 216 2.6 2.6 0.00 0.00 0.00 80 1014.1
20260901232424 86 228 0.0 0.9 0.00 0.00 0.00 78 1014.2
20260901231920 87 169 2.6 4.3 0.00 0.00 0.00 79 1014.4
20260901231416 87 175 2.6 2.6 0.00 0.00 0.00 78 1014.5
20260901230913 87 185 0.9 0.9 0.00 0.00 0.00 79 1014.4
20260901230412 87 200 0.9 0.9 0.00 0.00 0.00 79 1014.4
20260901225907 88 167 1.7 1.7 0.00 0.00 0.00 77 1014.6
20260901225406 88 211 3.5 4.3 0.00 0.00 0.00 78 1014.4
20260901224901 88 198 0.9 0.9 0.00 0.00 0.00 77 1014.6
20260901224358 88 191 1.7 2.6 0.00 0.00 0.00 79 1014.6
20260901223854 87 192 0.9 1.7 0.00 0.00 0.00 79 1014.6
20260901223349 85 179 0.0 0.9 0.00 0.00 0.00 85 1014.6
20260901222845 85 352 0.0 0.0 0.00 0.00 0.00 85 1014.7
20260901222341 85 348 0.0 0.0 0.00 0.00 0.00 85 1014.5
20260901221837 85 5 0.0 0.0 0.00 0.00 0.00 85 1014.4
20260901221332 85 5 0.0 0.0 0.00 0.00 0.00 85 1014.7
20260901220831 85 6 0.0 0.0 0.00 0.00 0.00 85 1014.7
20260901220331 85 12 0.0 0.0 0.00 0.00 0.00 85 1014.3
20260901215830 86 353 0.9 0.9 0.00 0.00 0.00 85 1014.4
20260901215329 86 347 0.0 0.0 0.00 0.00 0.00 84 1014.8
20260901214828 86 332 0.0 0.0 0.00 0.00 0.00 84 1014.7
20260901214327 87 340 0.0 0.0 0.00 0.00 0.00 83 1014.5
20260901213822 87 340 0.0 0.0 0.00 0.00 0.00 83 1014.7
20260901213322 88 340 0.0 0.0 0.00 0.00 0.00 81 1014.5
20260901212816 88 345 0.0 0.0 0.00 0.00 0.00 81 1014.5
20260901212312 88 344 0.0 0.0 0.00 0.00 0.00 81 1014.4
20260901211807 89 319 0.9 0.9 0.00 0.00 0.00 78 1014.4
20260901211304 89 337 0.0 0.0 0.00 0.00 0.00 79 1014.3
20260901210759 89 351 0.0 0.0 0.00 0.00 0.00 77 1014.4
20260901210254 90 5 0.0 0.0 0.00 0.00 0.00 75 1014.2
20260901205750 91 272 0.0 0.0 0.00 0.00 0.00 75 1014.4
20260901205250 91 143 0.0 0.0 0.00 0.00 0.00 70 1014.5
20260901204746 92 358 0.0 0.0 0.00 0.00 0.00 74 1014.6
20260901204242 93 4 0.0 0.0 0.00 0.00 0.00 71 1014.6
20260901203737 93 209 0.0 0.9 0.00 0.00 0.00 68 1014.5
20260901203236 95 136 0.9 1.7 0.00 0.00 0.00 61 1014.4
20260901202736 96 266 0.0 0.0 0.00 0.00 0.00 64 1014.8
20260901202232 96 268 0.0 0.0 0.00 0.00 0.00 63 1014.6
20260901201727 95 264 0.0 0.0 0.00 0.00 0.00 63 1014.6
20260901201227 95 246 0.0 0.0 0.00 0.00 0.00 64 1014.8
20260901200726 94 197 0.9 0.9 0.00 0.00 0.00 62 1014.7
20260901200222 95 270 0.0 0.9 0.00 0.00 0.00 60 1014.8
20260901195719 94 189 0.9 0.9 0.00 0.00 0.00 62 1015.0
20260901195213 94 259 0.9 0.9 0.00 0.00 0.00 65 1014.9
20260901194710 94 211 0.0 0.9 0.00 0.00 0.00 62 1015.0
20260901194204 94 123 0.9 0.9 0.00 0.00 0.00 63 1014.9
20260901193701 93 114 0.9 1.7 0.00 0.00 0.00 62 1014.8
20260901193154 94 109 0.9 0.9 0.00 0.00 0.00 63 1015.1
20260901192649 93 183 1.7 1.7 0.00 0.00 0.00 63 1015.1
20260901192144 94 169 1.7 1.7 0.00 0.00 0.00 63 1015.1
20260901191640 94 183 0.9 0.9 0.00 0.00 0.00 62 1015.0
20260901191136 94 150 0.0 0.0 0.00 0.00 0.00 62 1015.0
20260901190631 93 139 0.9 1.7 0.00 0.00 0.00 64 1015.3
20260901190131 93 115 0.9 0.9 0.00 0.00 0.00 65 1015.1
20260901185629 92 178 0.9 0.9 0.00 0.00 0.00 63 1015.3
20260901185128 92 114 1.7 1.7 0.00 0.00 0.00 63 1015.4
20260901184624 92 165 1.7 1.7 0.00 0.00 0.00 64 1015.4
20260901184119 93 104 0.0 0.0 0.00 0.00 0.00 64 1015.5
20260901183614 92 234 0.9 0.9 0.00 0.00 0.00 62 1015.3
20260901183109 92 355 0.9 0.9 0.00 0.00 0.00 63 1015.5
20260901182606 92 112 0.9 1.7 0.00 0.00 0.00 61 1015.5
20260901182105 93 154 0.0 0.9 0.00 0.00 0.00 63 1015.4
20260901181604 92 121 0.9 0.9 0.00 0.00 0.00 64 1015.6
20260901181058 91 117 0.9 0.9 0.00 0.00 0.00 66 1015.5
20260901180557 91 85 0.0 0.0 0.00 0.00 0.00 64 1015.5
20260901180052 91 157 1.7 1.7 0.00 0.00 0.00 66 1015.5
20260901175546 91 184 1.7 1.7 0.00 0.00 0.00 67 1015.6
20260901175046 91 194 2.6 2.6 0.00 0.00 0.00 66 1015.6
20260901174541 91 129 2.6 2.6 0.00 0.00 0.00 63 1015.5
20260901174037 91 124 1.7 1.7 0.00 0.00 0.00 64 1015.8
20260901173532 90 202 1.7 2.6 0.00 0.00 0.00 67 1016.0
20260901173028 90 177 2.6 2.6 0.00 0.00 0.00 69 1015.7
20260901172524 90 164 1.7 1.7 0.00 0.00 0.00 70 1016.1
20260901172021 90 181 1.7 1.7 0.00 0.00 0.00 70 1015.9
20260901171521 90 187 1.7 1.7 0.00 0.00 0.00 70 1015.9
20260901171020 90 121 0.9 1.7 0.00 0.00 0.00 69 1016.0
20260901170515 90 169 0.0 0.9 0.00 0.00 0.00 71 1015.9
20260901170015 89 159 0.9 0.9 0.00 0.00 0.00 70 1016.1
20260901165509 89 147 1.7 1.7 0.00 0.00 0.00 70 1016.0
20260901165005 90 158 1.7 1.7 0.00 0.00 0.00 68 1016.1
20260901164500 89 180 0.9 1.7 0.00 0.00 0.00 71 1016.1
20260901163954 89 157 2.6 2.6 0.00 0.00 0.00 71 1016.0
20260901163450 90 176 1.7 1.7 0.00 0.00 0.00 69 1016.3
20260901162949 89 21 0.0 0.0 0.00 0.00 0.00 70 1016.3
20260901162444 89 138 0.9 0.9 0.00 0.00 0.00 70 1016.2
20260901161943 89 169 1.7 1.7 0.00 0.00 0.00 71 1016.5
20260901161443 89 98 0.9 1.7 0.00 0.00 0.00 70 1016.4
20260901160938 89 179 2.6 2.6 0.00 0.00 0.00 70 1016.6
20260901160434 89 175 2.6 2.6 0.00 0.00 0.00 70 1016.5
20260901155932 89 204 2.6 2.6 0.00 0.00 0.00 69 1016.6
20260901155427 88 172 2.6 2.6 0.00 0.00 0.00 70 1016.6
20260901154924 89 168 2.6 4.3 0.00 0.00 0.00 70 1016.8
20260901154423 88 158 1.7 1.7 0.00 0.00 0.00 72 1016.9
20260901153918 88 166 1.7 1.7 0.00 0.00 0.00 72 1017.0
20260901153417 88 135 0.9 1.7 0.00 0.00 0.00 72 1016.9
20260901152912 87 89 0.9 1.7 0.00 0.00 0.00 73 1017.1
20260901152407 87 167 1.7 1.7 0.00 0.00 0.00 73 1017.1
20260901151907 87 95 2.6 2.6 0.00 0.00 0.00 75 1017.2
20260901151407 86 106 2.6 2.6 0.00 0.00 0.00 76 1017.3
20260901150906 86 135 1.7 2.6 0.00 0.00 0.00 77 1017.2
20260901150404 85 125 2.6 4.3 0.00 0.00 0.00 77 1017.1
20260901145901 85 103 1.7 1.7 0.00 0.00 0.00 78 1017.4
20260901145356 85 180 0.9 1.7 0.00 0.00 0.00 79 1017.2
20260901144851 84 158 1.7 2.6 0.00 0.00 0.00 79 1017.2
20260901144347 84 178 0.9 1.7 0.00 0.00 0.00 82 1017.4
20260901143843 83 112 0.9 0.9 0.00 0.00 0.00 83 1017.2
20260901143338 83 151 1.7 1.7 0.00 0.00 0.00 85 1017.1
20260901142835 83 123 0.9 1.7 0.00 0.00 0.00 84 1017.2
20260901142333 83 157 1.7 1.7 0.00 0.00 0.00 84 1017.0
20260901141828 82 152 1.7 1.7 0.00 0.00 0.00 84 1017.0
20260901141323 83 159 0.9 1.7 0.00 0.00 0.00 85 1016.9
20260901140822 82 167 1.7 1.7 0.00 0.00 0.00 85 1017.0
20260901140315 82 49 0.9 0.9 0.00 0.00 0.00 86 1017.2
20260901135811 82 100 1.7 1.7 0.00 0.00 0.00 85 1016.9
20260901135310 82 178 0.9 0.9 0.00 0.00 0.00 85 1017.0
20260901134807 82 176 0.9 1.7 0.00 0.00 0.00 86 1017.2
20260901134307 82 159 1.7 1.7 0.00 0.00 0.00 86 1017.0
20260901133801 82 87 1.7 1.7 0.00 0.00 0.00 85 1017.2
20260901133300 82 159 2.6 2.6 0.00 0.00 0.00 85 1017.3
20260901132758 83 155 0.9 1.7 0.00 0.00 0.00 84 1017.4
20260901132254 82 129 1.7 1.7 0.00 0.00 0.00 85 1017.1
20260901131749 82 249 0.9 0.9 0.00 0.00 0.00 85 1017.2
20260901131248 82 163 1.7 2.6 0.00 0.00 0.00 85 1017.2
20260901130743 83 120 1.7 1.7 0.00 0.00 0.00 84 1017.2
20260901130242 82 139 1.7 1.7 0.00 0.00 0.00 84 1017.0
20260901125740 82 38 0.0 0.0 0.00 0.00 0.00 85 1017.3
20260901125230 81 137 0.9 0.9 0.00 0.00 0.00 86 1017.1
20260901124730 80 159 0.9 0.9 0.00 0.00 0.00 87 1017.2
20260901124224 80 17 0.0 0.0 0.00 0.00 0.00 87 1017.1
20260901123718 80 355 0.9 0.9 0.00 0.00 0.00 89 1017.0
20260901123214 80 281 0.0 0.0 0.00 0.00 0.00 89 1017.1
20260901122712 79 106 0.0 0.0 0.00 0.00 0.00 89 1017.2
20260901122207 79 7 0.0 0.0 0.00 0.00 0.00 90 1016.9
20260901121701 78 170 2.6 4.3 0.00 0.00 0.00 90 1017.0
20260901121157 78 92 0.0 0.0 0.00 0.00 0.00 92 1016.9
20260901120656 78 189 1.7 1.7 0.00 0.00 0.00 92 1016.8
20260901120151 78 125 0.0 0.0 0.00 0.00 0.00 92 1016.8
20260901115647 77 217 0.0 0.0 0.00 0.00 0.00 93 1016.9
20260901115143 77 251 0.0 0.0 0.00 0.00 0.00 93 1017.0
20260901114639 77 179 0.0 0.0 0.00 0.00 0.00 93 1016.6
20260901114139 77 105 0.0 0.0 0.00 0.00 0.00 93 1016.9
20260901113638 77 110 0.0 0.0 0.00 0.00 0.00 94 1016.8
20260901113133 77 214 0.9 1.7 0.00 0.00 0.00 94 1016.5
20260901112633 77 277 0.0 0.0 0.00 0.00 0.00 95 1016.5
20260901112127 76 143 0.0 0.9 0.00 0.00 0.00 95 1016.4
20260901111626 76 87 0.0 0.0 0.00 0.00 0.00 95 1016.5
20260901111125 76 107 0.0 0.0 0.00 0.00 0.00 95 1016.0
20260901110621 76 64 0.0 0.0 0.00 0.00 0.00 95 1016.4
20260901110116 76 28 0.0 0.0 0.00 0.00 0.00 95 1016.4
20260901105613 76 130 0.0 0.0 0.00 0.00 0.00 95 1016.2
20260901105112 76 348 0.0 0.0 0.00 0.00 0.00 95 1016.4
20260901104608 76 355 0.0 0.0 0.00 0.00 0.00 95 1016.2
20260901104103 76 358 0.0 0.0 0.00 0.00 0.00 95 1016.3
20260901103557 76 124 0.0 0.0 0.00 0.00 0.00 95 1016.1
20260901103053 76 237 1.7 1.7 0.00 0.00 0.00 95 1016.1
20260901102552 76 315 0.0 0.0 0.00 0.00 0.00 95 1016.3
20260901102047 76 304 0.0 0.0 0.00 0.00 0.00 95 1016.2
20260901101543 76 318 0.0 0.0 0.00 0.00 0.00 95 1016.2
20260901101042 76 323 0.0 0.0 0.00 0.00 0.00 95 1016.2
20260901100537 76 322 0.0 0.0 0.00 0.00 0.00 95 1016.4
20260901100036 76 337 0.0 0.0 0.00 0.00 0.00 95 1016.1
20260901095535 76 342 0.0 0.0 0.00 0.00 0.00 94 1016.2
20260901095033 76 339 0.0 0.0 0.00 0.00 0.00 94 1016.3
20260901094528 76 342 0.0 0.0 0.00 0.00 0.00 94 1016.2
20260901094027 76 342 0.0 0.0 0.00 0.00 0.00 94 1016.1
20260901093522 76 264 0.0 0.0 0.00 0.00 0.00 94 1016.2
20260901093017 76 264 0.0 0.0 0.00 0.00 0.00 94 1016.2
20260901092513 77 264 0.0 0.0 0.00 0.00 0.00 94 1016.5
20260901092009 77 294 0.0 0.0 0.00 0.00 0.00 94 1016.1
20260901091504 77 326 0.0 0.0 0.00 0.00 0.00 94 1016.1
20260901091004 77 80 0.0 0.0 0.00 0.00 0.00 94 1016.3
20260901090504 77 84 0.0 0.0 0.00 0.00 0.00 94 1016.3
20260901085959 77 340 0.0 0.0 0.00 0.00 0.00 94 1016.4
20260901085455 77 337 0.0 0.0 0.00 0.00 0.00 94 1016.3
20260901084951 77 347 0.0 0.0 0.00 0.00 0.00 94 1016.2
20260901084446 77 260 0.0 0.0 0.00 0.00 0.00 94 1016.4
20260901083942 77 298 0.0 0.0 0.00 0.00 0.00 94 1016.3
20260901083437 77 311 0.0 0.0 0.00 0.00 0.00 94 1016.2
20260901082935 77 34 0.0 0.0 0.00 0.00 0.00 94 1016.6
20260901082430 77 352 0.0 0.9 0.00 0.00 0.00 94 1016.6
20260901081925 77 324 0.0 0.0 0.00 0.00 0.00 94 1016.6
20260901081420 77 14 0.0 0.9 0.00 0.00 0.00 94 1016.3
20260901080915 77 353 0.0 0.0 0.00 0.00 0.00 94 1016.6
20260901080409 77 256 0.0 0.0 0.00 0.00 0.00 94 1016.6
20260901075904 77 323 0.0 0.0 0.00 0.00 0.00 94 1016.6
20260901075359 77 330 0.0 0.9 0.00 0.00 0.00 94 1016.5
20260901074853 77 43 0.0 0.0 0.00 0.00 0.00 94 1016.6
20260901074348 77 354 0.0 0.0 0.00 0.00 0.00 94 1016.8
20260901073843 77 356 0.0 0.0 0.00 0.00 0.00 94 1016.5
20260901073339 77 316 0.0 0.0 0.00 0.00 0.00 93 1016.9
20260901072835 77 130 0.0 0.0 0.00 0.00 0.00 93 1016.8
20260901072335 77 167 0.0 0.0 0.00 0.00 0.00 93 1016.7
20260901071830 77 140 0.0 0.0 0.00 0.00 0.00 93 1017.0
20260901071328 78 129 0.0 0.0 0.00 0.00 0.00 93 1016.9
20260901070827 78 137 0.0 0.0 0.00 0.00 0.00 93 1017.0
20260901070323 78 352 0.0 0.0 0.00 0.00 0.00 93 1017.0
20260901065822 78 85 0.0 0.0 0.00 0.00 0.00 93 1016.9
20260901065317 78 292 0.0 0.0 0.00 0.00 0.00 93 1016.9
20260901064813 78 279 0.9 0.9 0.00 0.00 0.00 93 1016.9
20260901064309 78 233 0.9 0.9 0.00 0.00 0.00 93 1017.0
20260901063807 78 34 0.0 0.0 0.00 0.00 0.00 93 1016.9
20260901063303 78 58 0.0 0.0 0.00 0.00 0.00 93 1016.9
20260901062758 78 298 0.0 0.0 0.00 0.00 0.00 93 1016.9
20260901062254 78 311 0.0 0.0 0.00 0.00 0.00 93 1016.8
20260901061749 78 288 0.0 0.9 0.00 0.00 0.00 92 1017.3
20260901061249 78 276 0.9 0.9 0.00 0.00 0.00 92 1017.0
20260901060744 78 341 0.9 0.9 0.00 0.00 0.00 92 1017.2
20260901060240 78 323 0.0 0.0 0.00 0.00 0.00 92 1017.2
20260901055735 78 289 0.0 0.9 0.00 0.00 0.00 92 1017.3
20260901055232 78 353 1.7 1.7 0.00 0.00 0.00 91 1017.4
20260901054728 79 358 0.0 0.0 0.00 0.00 0.00 91 1017.3
20260901054225 79 331 0.0 0.0 0.00 0.00 0.00 91 1017.4
20260901053720 79 296 0.9 0.9 0.00 0.00 0.00 92 1017.5
20260901053215 78 268 0.9 0.9 0.00 0.00 0.00 92 1017.6
20260901052711 78 359 0.9 1.7 0.00 0.00 0.00 92 1017.5
20260901052207 78 349 0.0 0.0 0.00 0.00 0.00 91 1017.4
20260901051705 78 349 0.0 0.0 0.00 0.00 0.00 91 1017.2
20260901051205 78 359 0.0 0.9 0.00 0.00 0.00 91 1017.5
20260901050700 78 354 0.0 0.0 0.00 0.00 0.00 91 1017.6
20260901050155 79 351 1.7 1.7 0.00 0.00 0.00 91 1017.2
20260901045650 78 267 0.0 0.9 0.00 0.00 0.00 91 1017.4
20260901045145 78 336 0.0 0.0 0.00 0.00 0.00 91 1017.6
20260901044640 78 303 0.0 0.0 0.00 0.00 0.00 92 1017.4
20260901044137 78 230 0.0 0.0 0.00 0.00 0.00 92 1017.4
20260901043632 78 323 0.9 0.9 0.00 0.00 0.00 93 1017.3
20260901043128 78 291 0.0 0.0 0.00 0.00 0.00 93 1017.4
20260901042626 77 120 0.9 0.9 0.00 0.00 0.00 94 1017.5
20260901042122 77 242 0.9 0.9 0.00 0.00 0.00 94 1017.3
20260901041617 77 323 0.0 0.9 0.00 0.00 0.00 94 1017.2
20260901041113 77 303 0.0 0.0 0.00 0.00 0.00 93 1017.7
20260901040612 77 281 0.0 0.0 0.00 0.00 0.00 93 1017.1
20260901040106 77 351 0.0 0.0 0.00 0.00 0.00 93 1017.5
20260901035604 77 354 0.0 0.0 0.00 0.00 0.00 93 1017.3
20260901035103 77 7 0.0 0.0 0.00 0.00 0.00 93 1017.0
20260901034603 77 13 0.0 0.0 0.00 0.00 0.00 93 1017.0
20260901034058 77 51 0.0 0.0 0.00 0.00 0.00 93 1017.0
20260901033556 77 346 0.0 0.0 0.00 0.00 0.00 93 1017.3
20260901033051 78 337 0.0 0.0 0.00 0.00 0.00 92 1017.2
20260901032550 78 343 0.0 0.0 0.00 0.00 0.00 92 1017.3
20260901032045 78 355 0.0 0.0 0.00 0.00 0.00 92 1017.2
20260901031540 78 348 0.0 0.9 0.00 0.00 0.00 92 1017.3
20260901031036 78 348 0.9 0.9 0.00 0.00 0.00 92 1017.3
20260901030536 78 336 0.0 0.0 0.00 0.00 0.00 91 1017.3
20260901030031 78 14 0.0 0.0 0.00 0.00 0.00 91 1017.0
20260901025530 78 352 0.0 0.0 0.00 0.00 0.00 91 1017.4
20260901025025 78 27 0.0 0.0 0.00 0.00 0.00 90 1017.2
20260901024520 79 355 0.0 0.0 0.00 0.00 0.00 89 1017.3
20260901024019 79 346 0.0 0.9 0.00 0.00 0.00 89 1017.2
20260901023513 79 154 0.9 1.7 0.00 0.00 0.00 89 1017.4
20260901023008 80 34 0.0 0.0 0.00 0.00 0.00 88 1017.3
20260901022503 80 258 0.0 0.0 0.00 0.00 0.00 88 1017.3
20260901021958 80 162 0.9 0.9 0.00 0.00 0.00 87 1017.3
20260901021454 80 65 0.0 0.0 0.00 0.00 0.00 87 1017.4
20260901020949 80 89 0.0 0.0 0.00 0.00 0.00 87 1017.5
20260901020444 80 204 0.0 0.9 0.00 0.00 0.00 86 1017.4
20260901015943 80 184 0.0 0.9 0.00 0.00 0.00 87 1017.3
20260901015440 81 23 0.0 0.0 0.00 0.00 0.00 87 1017.4
20260901014939 81 140 0.0 0.0 0.00 0.00 0.00 87 1017.3
20260901014435 81 153 0.0 0.0 0.00 0.00 0.00 87 1017.3
20260901013930 81 150 0.0 0.0 0.00 0.00 0.00 87 1017.3
20260901013426 81 153 0.0 0.9 0.00 0.00 0.00 86 1017.2
20260901012922 81 149 0.9 0.9 0.00 0.00 0.00 86 1017.0
20260901012416 82 148 0.9 1.7 0.00 0.00 0.00 85 1017.3
20260901011912 82 130 1.7 1.7 0.00 0.00 0.00 84 1017.1
20260901011408 82 149 0.9 1.7 0.00 0.00 0.00 84 1016.9
20260901010906 82 148 1.7 1.7 0.00 0.00 0.00 84 1016.9
20260901010401 82 127 1.7 1.7 0.00 0.00 0.00 85 1016.9
20260901005900 82 149 0.9 0.9 0.00 0.00 0.00 85 1016.7
20260901005355 82 126 0.9 0.9 0.00 0.00 0.00 86 1017.0
20260901004850 82 139 0.9 0.9 0.00 0.00 0.00 85 1016.7
20260901004349 82 132 0.9 0.9 0.00 0.00 0.00 85 1016.9
20260901003844 82 152 0.9 1.7 0.00 0.00 0.00 85 1016.8
20260901003339 83 141 0.9 0.9 0.00 0.00 0.00 85 1016.6
20260901002838 83 137 0.9 0.9 0.00 0.00 0.00 84 1016.4
20260901002337 83 141 0.9 0.9 0.00 0.00 0.00 85 1016.7
20260901001832 83 139 0.9 0.9 0.00 0.00 0.00 84 1016.6
20260901001327 83 151 0.9 0.9 0.00 0.00 0.00 84 1016.5
20260901000823 83 135 0.0 0.0 0.00 0.00 0.00 84 1016.6
20260901000318 84 148 0.9 0.9 0.00 0.00 0.00 83 1016.5
20260831235816 84 162 0.9 1.7 0.00 0.00 0.00 83 1016.7
20260831235312 84 143 0.9 0.9 0.00 0.00 0.00 83 1016.4
20260831234808 84 154 1.7 1.7 0.00 0.00 0.00 83 1016.5
20260831234307 83 132 1.7 1.7 0.00 0.00 0.00 83 1016.4
20260831233803 82 148 0.0 0.0 0.00 0.00 0.00 85 1016.2